Location: Calmejanne
(44.7523°N, 1.9418°E)
Time: 11:41:31
(UTC+00:00)

Meteor 1-11 Rocket - Pass Details

Date: 14 May 2026
Orbit: 829 x 915 km, 81.2° (Epoch: 6 June)

Event Time Altitude Azimuth Distance (km) Brightness Sun altitude
Rises 23:07:05 0° 352° (N) 3,452 8.2 -25.7°
Reaches altitude 10° 23:09:36 10° 356° (N) 2,498 7.2 -25.8°
Maximum altitude 23:15:11 60° 76° (ENE) 959 3.9 -26.0°
Enters shadow 23:15:47 57° 106° (ESE) 990 3.8 -26.0°
